QPF
0.00 0.00 0.00 0.00 0.00 0.00 0.00 0.00 0.00 0.00 0.00 0.00 0.00 0.00 0.00 0.00 0.00 0.00 0.00 0.00 0.00 0.00 0.00 0.00 0.00 0.00 0.00 0.00 0.00 0.01 0.01 0.01 0.01 0.01 0.01 0.02 0.03 0.04 0.04 0.04 0.04 0.03 0.03 0.02 0.02 0.02 0.01 0.01 0.01
0.00 0.00 0.00 0.00 0.00 0.00 0.00 0.00 0.00 0.00 0.00 0.00 0.00 0.00 0.00 0.00 0.00 0.00 0.00 0.00 0.00 0.00 0.00 0.00 0.00 0.00 0.00 0.00 0.00 0.00 0.00 0.00 0.00 0.00 0.00 0.01 0.02 0.03 0.03 0.04 0.04 0.03 0.03 0.02 0.02 0.02 0.02 0.01 0.01
0.00 0.00 0.00 0.00 0.00 0.00 0.00 0.00 0.00 0.00 0.00 0.00 0.00 0.00 0.00 0.00 0.00 0.00 0.00 0.00 0.00 0.00 0.00 0.00 0.00 0.00 0.00 0.00 0.00 0.00 0.00 0.00 0.00 0.00 0.00 0.00 0.01 0.01 0.02 0.02 0.02 0.02 0.03 0.03 0.03 0.03 0.03 0.02 0.02
0.00 0.00 0.00 0.00 0.00 0.00 0.00 0.00 0.00 0.00 0.00 0.00 0.00 0.00 0.00 0.00 0.00 0.00 0.00 0.00 0.00 0.00 0.00 0.00 0.00 0.00 0.00 0.00 0.00 0.00 0.00 0.00 0.00 0.00 0.00 0.00 0.00 0.00 0.01 0.01 0.01 0.01 0.02 0.02 0.02 0.03 0.03 0.03 0.03
0.00 0.00 0.00 0.00 0.00 0.00 0.00 0.00 0.00 0.00 0.00 0.00 0.00 0.00 0.00 0.00 0.00 0.00 0.00 0.00 0.00 0.00 0.00 0.00 0.00 0.00 0.00 0.00 0.00 0.00 0.00 0.00 0.00 0.00 0.00 0.00 0.00 0.00 0.00 0.01 0.01 0.01 0.01 0.02 0.02 0.03 0.03 0.04 0.04
0.00 0.00 0.00 0.00 0.00 0.00 0.00 0.00 0.00 0.00 0.00 0.00 0.00 0.00 0.00 0.00 0.00 0.00 0.00 0.00 0.00 0.00 0.00 0.00 0.00 0.00 0.00 0.00 0.00 0.00 0.00 0.00 0.00 0.00 0.00 0.00 0.00 0.00 0.00 0.00 0.00 0.00 0.00 0.01 0.02 0.02 0.03 0.03 0.04
0.00 0.00 0.00 0.00 0.00 0.00 0.00 0.00 0.00 0.00 0.00 0.00 0.00 0.00 0.00 0.00 0.00 0.00 0.00 0.00 0.00 0.00 0.00 0.00 0.00 0.00 0.00 0.00 0.00 0.00 0.00 0.00 0.00 0.00 0.00 0.00 0.00 0.00 0.00 0.00 0.00 0.00 0.00 0.00 0.01 0.01 0.02 0.03 0.03
0.00 0.00 0.00 0.00 0.00 0.00 0.00 0.00 0.00 0.00 0.00 0.00 0.00 0.00 0.00 0.00 0.00 0.00 0.00 0.00 0.00 0.00 0.00 0.00 0.00 0.00 0.00 0.00 0.00 0.00 0.00 0.00 0.00 0.00 0.00 0.00 0.00 0.00 0.00 0.00 0.00 0.00 0.00 0.00 0.00 0.00 0.01 0.02 0.02
0.00 0.00 0.00 0.00 0.00 0.00 0.00 0.00 0.00 0.00 0.00 0.00 0.00 0.00 0.00 0.00 0.00 0.00 0.00 0.00 0.00 0.00 0.00 0.00 0.00 0.00 0.00 0.00 0.00 0.00 0.00 0.00 0.00 0.00 0.00 0.00 0.00 0.00 0.00 0.00 0.00 0.00 0.00 0.00 0.00 0.00 0.00 0.01 0.01
0.00 0.00 0.00 0.00 0.00 0.00 0.00 0.00 0.00 0.00 0.00 0.00 0.00 0.00 0.00 0.00 0.00 0.00 0.00 0.00 0.00 0.00 0.00 0.00 0.00 0.00 0.00 0.00 0.00 0.00 0.00 0.00 0.00 0.00 0.00 0.00 0.00 0.00 0.00 0.00 0.00 0.00 0.00 0.00 0.00 0.00 0.00 0.00 0.00
0.00 0.00 0.00 0.00 0.00 0.00 0.00 0.00 0.00 0.00 0.00 0.00 0.00 0.00 0.00 0.00 0.00 0.00 0.00 0.00 0.00 0.00 0.00 0.00 0.00 0.00 0.00 0.00 0.00 0.00 0.00 0.00 0.00 0.00 0.00 0.00 0.00 0.00 0.00 0.00 0.00 0.00 0.00 0.00 0.00 0.00 0.00 0.00 0.00
0.00 0.00 0.00 0.00 0.00 0.00 0.00 0.00 0.00 0.00 0.00 0.00 0.00 0.00 0.00 0.00 0.00 0.00 0.00 0.00 0.00 0.00 0.00 0.00 0.00 0.00 0.00 0.00 0.00 0.00 0.00 0.00 0.00 0.00 0.00 0.00 0.00 0.00 0.00 0.00 0.00 0.00 0.00 0.00 0.00 0.00 0.00 0.00 0.00
0.00 0.00 0.00 0.00 0.00 0.00 0.00 0.00 0.00 0.00 0.00 0.00 0.00 0.00 0.00 0.00 0.00 0.00 0.00 0.00 0.00 0.00 0.00 0.00 0.00 0.00 0.00 0.00 0.00 0.00 0.00 0.00 0.00 0.00 0.00 0.00 0.00 0.00 0.00 0.00 0.00 0.00 0.00 0.00 0.00 0.00 0.00 0.00 0.00
0.00 0.00 0.00 0.00 0.00 0.00 0.00 0.00 0.00 0.00 0.00 0.00 0.00 0.00 0.00 0.00 0.00 0.00 0.00 0.00 0.00 0.00 0.00 0.00 0.00 0.00 0.00 0.00 0.00 0.00 0.00 0.00 0.00 0.00 0.00 0.00 0.00 0.00 0.00 0.00 0.00 0.00 0.00 0.00 0.00 0.00 0.00 0.00 0.00
0.00 0.00 0.00 0.00 0.00 0.00 0.00 0.00 0.00 0.00 0.00 0.00 0.00 0.00 0.00 0.00 0.00 0.00 0.00 0.00 0.00 0.00 0.00 0.00 0.00 0.00 0.00 0.00 0.00 0.00 0.00 0.00 0.00 0.00 0.00 0.00 0.00 0.00 0.00 0.00 0.00 0.00 0.00 0.00 0.00 0.00 0.00 0.00 0.00
0.00 0.00 0.00 0.00 0.00 0.00 0.00 0.00 0.00 0.00 0.00 0.00 0.00 0.00 0.00 0.00 0.00 0.00 0.00 0.00 0.00 0.00 0.00 0.00 0.00 0.00 0.00 0.00 0.00 0.00 0.00 0.00 0.00 0.00 0.00 0.00 0.00 0.00 0.00 0.00 0.00 0.00 0.00 0.00 0.00 0.00 0.00 0.00 0.00
0.00 0.00 0.00 0.00 0.00 0.00 0.00 0.00 0.00 0.00 0.00 0.00 0.00 0.00 0.00 0.00 0.00 0.00 0.00 0.00 0.00 0.00 0.00 0.00 0.00 0.00 0.00 0.00 0.00 0.00 0.00 0.00 0.00 0.00 0.00 0.00 0.00 0.00 0.00 0.00 0.00 0.00 0.00 0.00 0.00 0.00 0.00 0.00 0.00
0.00 0.00 0.00 0.00 0.00 0.00 0.00 0.00 0.00 0.00 0.00 0.00 0.00 0.00 0.00 0.00 0.00 0.00 0.00 0.00 0.00 0.00 0.00 0.00 0.00 0.00 0.00 0.00 0.00 0.00 0.00 0.00 0.00 0.00 0.00 0.00 0.00 0.00 0.00 0.00 0.00 0.00 0.00 0.00 0.00 0.00 0.00 0.00 0.00
0.00 0.00 0.00 0.00 0.00 0.00 0.00 0.00 0.00 0.00 0.00 0.00 0.00 0.00 0.00 0.00 0.00 0.00 0.00 0.00 0.00 0.00 0.00 0.00 0.00 0.00 0.00 0.00 0.00 0.00 0.00 0.00 0.00 0.00 0.00 0.00 0.00 0.00 0.00 0.00 0.00 0.00 0.00 0.00 0.00 0.00 0.00 0.00 0.00
0.00 0.00 0.00 0.00 0.00 0.00 0.00 0.00 0.00 0.00 0.00 0.00 0.00 0.00 0.00 0.00 0.00 0.00 0.00 0.00 0.00 0.00 0.00 0.00 0.00 0.00 0.00 0.00 0.00 0.00 0.00 0.00 0.00 0.00 0.00 0.00 0.00 0.00 0.00 0.00 0.00 0.00 0.00 0.00 0.00 0.00 0.00 0.00 0.00
0.00 0.00 0.00 0.00 0.00 0.00 0.00 0.00 0.00 0.00 0.00 0.00 0.00 0.00 0.00 0.00 0.00 0.00 0.00 0.00 0.00 0.00 0.00 0.00 0.00 0.00 0.00 0.00 0.00 0.00 0.00 0.00 0.00 0.00 0.00 0.00 0.00 0.00 0.00 0.00 0.00 0.00 0.00 0.00 0.00 0.00 0.00 0.01 0.00
0.00 0.00 0.00 0.00 0.00 0.00 0.00 0.00 0.00 0.00 0.00 0.00 0.00 0.00 0.00 0.00 0.00 0.00 0.00 0.00 0.00 0.00 0.00 0.00 0.00 0.00 0.00 0.00 0.00 0.00 0.00 0.00 0.00 0.00 0.00 0.00 0.00 0.00 0.00 0.00 0.00 0.00 0.00 0.00 0.00 0.00 0.00 0.01 0.01
0.00 0.00 0.00 0.00 0.00 0.00 0.00 0.00 0.00 0.00 0.00 0.00 0.00 0.00 0.00 0.00 0.00 0.00 0.00 0.00 0.00 0.00 0.00 0.00 0.00 0.00 0.00 0.00 0.00 0.00 0.00 0.00 0.00 0.00 0.00 0.00 0.00 0.00 0.00 0.00 0.00 0.00 0.00 0.00 0.00 0.00 0.00 0.00 0.01
0.00 0.00 0.00 0.00 0.00 0.00 0.00 0.00 0.00 0.00 0.00 0.00 0.00 0.00 0.00 0.00 0.00 0.00 0.00 0.00 0.00 0.00 0.00 0.00 0.00 0.00 0.00 0.00 0.00 0.00 0.00 0.00 0.00 0.00 0.00 0.00 0.00 0.00 0.00 0.00 0.00 0.00 0.00 0.00 0.00 0.00 0.00 0.00 0.01
0.00 0.00 0.00 0.00 0.00 0.00 0.00 0.00 0.00 0.00 0.00 0.00 0.00 0.00 0.00 0.00 0.00 0.00 0.00 0.00 0.00 0.00 0.00 0.00 0.00 0.00 0.00 0.00 0.00 0.00 0.00 0.00 0.00 0.00 0.00 0.00 0.00 0.00 0.00 0.00 0.00 0.00 0.00 0.00 0.00 0.00 0.00 0.00 0.01
0.00 0.00 0.00 0.00 0.00 0.00 0.00 0.00 0.00 0.00 0.00 0.00 0.00 0.00 0.00 0.00 0.00 0.00 0.00 0.00 0.00 0.00 0.00 0.00 0.00 0.00 0.00 0.00 0.00 0.00 0.00 0.00 0.00 0.00 0.00 0.00 0.00 0.00 0.00 0.00 0.00 0.00 0.00 0.00 0.00 0.00 0.00 0.00 0.01
0.00 0.00 0.00 0.00 0.00 0.00 0.00 0.00 0.00 0.00 0.00 0.00 0.00 0.00 0.00 0.00 0.00 0.00 0.00 0.00 0.00 0.00 0.00 0.00 0.00 0.00 0.00 0.00 0.00 0.00 0.00 0.00 0.00 0.00 0.00 0.00 0.00 0.00 0.00 0.00 0.00 0.00 0.00 0.00 0.00 0.00 0.00 0.00 0.00
0.00 0.00 0.00 0.00 0.00 0.00 0.00 0.00 0.00 0.00 0.00 0.00 0.00 0.00 0.00 0.00 0.00 0.00 0.00 0.00 0.00 0.00 0.00 0.00 0.00 0.00 0.00 0.00 0.00 0.00 0.00 0.00 0.00 0.00 0.00 0.00 0.00 0.00 0.00 0.00 0.00 0.00 0.00 0.00 0.00 0.00 0.00 0.00 0.00
0.00 0.00 0.00 0.00 0.00 0.00 0.00 0.00 0.00 0.00 0.00 0.00 0.00 0.00 0.00 0.00 0.00 0.00 0.00 0.00 0.00 0.00 0.00 0.00 0.00 0.00 0.00 0.00 0.00 0.00 0.00 0.00 0.00 0.00 0.00 0.00 0.00 0.00 0.00 0.00 0.00 0.00 0.00 0.00 0.00 0.00 0.00 0.00 0.00
0.00 0.00 0.00 0.00 0.00 0.00 0.00 0.00 0.00 0.00 0.00 0.00 0.00 0.00 0.00 0.00 0.00 0.00 0.00 0.00 0.00 0.00 0.00 0.00 0.00 0.00 0.00 0.00 0.00 0.00 0.00 0.00 0.00 0.00 0.00 0.00 0.00 0.00 0.00 0.00 0.00 0.00 0.00 0.00 0.00 0.00 0.00 0.01 0.02
MSLP
1014.62 1015.65 1017.16 1018.99 1020.98 1022.90 1024.59 1025.90 1026.80 1027.32 1027.59 1027.74 1027.92 1028.22 1028.69 1029.27 1029.88 1030.38 1030.66 1030.62 1030.26 1029.61 1028.76 1027.83 1026.93 1026.13 1025.48 1024.96 1024.54 1024.15 1023.76 1023.34 1022.89 1022.42 1021.98 1021.58 1021.22 1020.90 1020.59 1020.25 1019.86 1019.41 1018.90 1018.37 1017.85 1017.37 1016.97 1016.64 1016.37
1015.29 1016.72 1018.57 1020.66 1022.77 1024.69 1026.24 1027.34 1027.99 1028.26 1028.31 1028.32 1028.42 1028.71 1029.20 1029.82 1030.46 1030.98 1031.25 1031.19 1030.80 1030.13 1029.26 1028.33 1027.43 1026.65 1026.00 1025.49 1025.07 1024.69 1024.31 1023.90 1023.48 1023.05 1022.64 1022.27 1021.91 1021.57 1021.21 1020.79 1020.30 1019.74 1019.13 1018.51 1017.91 1017.38 1016.92 1016.54 1016.23
1016.12 1017.89 1020.01 1022.26 1024.40 1026.23 1027.61 1028.48 1028.87 1028.92 1028.81 1028.72 1028.78 1029.08 1029.59 1030.25 1030.91 1031.42 1031.67 1031.60 1031.19 1030.52 1029.68 1028.78 1027.92 1027.18 1026.57 1026.08 1025.66 1025.28 1024.89 1024.50 1024.09 1023.68 1023.29 1022.92 1022.56 1022.19 1021.78 1021.28 1020.71 1020.06 1019.37 1018.67 1018.01 1017.43 1016.92 1016.51 1016.15
1017.08 1019.12 1021.40 1023.70 1025.79 1027.47 1028.63 1029.27 1029.46 1029.34 1029.13 1029.00 1029.07 1029.39 1029.94 1030.61 1031.27 1031.76 1031.98 1031.88 1031.48 1030.83 1030.04 1029.22 1028.44 1027.77 1027.21 1026.74 1026.33 1025.93 1025.53 1025.11 1024.69 1024.28 1023.89 1023.52 1023.15 1022.76 1022.30 1021.75 1021.12 1020.41 1019.66 1018.92 1018.22 1017.59 1017.05 1016.59 1016.19
1018.15 1020.34 1022.68 1024.92 1026.87 1028.35 1029.30 1029.74 1029.78 1029.58 1029.35 1029.25 1029.37 1029.74 1030.32 1030.99 1031.61 1032.06 1032.24 1032.12 1031.72 1031.13 1030.42 1029.69 1029.02 1028.43 1027.93 1027.49 1027.07 1026.64 1026.20 1025.74 1025.29 1024.86 1024.46 1024.07 1023.69 1023.28 1022.80 1022.23 1021.56 1020.83 1020.06 1019.29 1018.57 1017.92 1017.34 1016.84 1016.38
1019.29 1021.52 1023.80 1025.90 1027.64 1028.90 1029.65 1029.94 1029.91 1029.71 1029.55 1029.53 1029.75 1030.20 1030.80 1031.45 1032.02 1032.40 1032.52 1032.37 1031.99 1031.46 1030.85 1030.24 1029.68 1029.18 1028.73 1028.31 1027.86 1027.39 1026.89 1026.38 1025.88 1025.42 1024.99 1024.60 1024.22 1023.80 1023.32 1022.74 1022.07 1021.34 1020.56 1019.80 1019.07 1018.40 1017.79 1017.23 1016.70
1020.47 1022.64 1024.77 1026.65 1028.15 1029.18 1029.76 1029.96 1029.93 1029.82 1029.78 1029.91 1030.26 1030.78 1031.40 1032.02 1032.51 1032.80 1032.85 1032.68 1032.32 1031.85 1031.35 1030.86 1030.41 1029.99 1029.59 1029.16 1028.69 1028.16 1027.60 1027.03 1026.48 1025.98 1025.54 1025.14 1024.76 1024.35 1023.87 1023.30 1022.65 1021.92 1021.16 1020.40 1019.67 1018.98 1018.34 1017.73 1017.13
1021.66 1023.70 1025.61 1027.22 1028.46 1029.27 1029.72 1029.89 1029.91 1029.94 1030.08 1030.38 1030.86 1031.46 1032.09 1032.66 1033.07 1033.27 1033.25 1033.04 1032.71 1032.31 1031.91 1031.53 1031.17 1030.82 1030.45 1030.01 1029.50 1028.91 1028.29 1027.67 1027.08 1026.56 1026.11 1025.71 1025.33 1024.92 1024.45 1023.89 1023.24 1022.53 1021.78 1021.03 1020.29 1019.59 1018.92 1018.26 1017.60
1022.85 1024.70 1026.34 1027.67 1028.64 1029.27 1029.62 1029.79 1029.92 1030.11 1030.44 1030.91 1031.52 1032.17 1032.80 1033.30 1033.62 1033.73 1033.66 1033.44 1033.14 1032.81 1032.50 1032.21 1031.94 1031.63 1031.26 1030.81 1030.25 1029.62 1028.96 1028.30 1027.69 1027.16 1026.71 1026.31 1025.92 1025.51 1025.03 1024.46 1023.81 1023.10 1022.35 1021.60 1020.87 1020.16 1019.46 1018.76 1018.05
1024.00 1025.62 1026.98 1028.04 1028.77 1029.24 1029.53 1029.74 1029.98 1030.34 1030.83 1031.45 1032.15 1032.83 1033.43 1033.86 1034.10 1034.15 1034.03 1033.82 1033.57 1033.31 1033.09 1032.87 1032.65 1032.37 1032.00 1031.52 1030.93 1030.27 1029.58 1028.91 1028.30 1027.78 1027.33 1026.92 1026.52 1026.09 1025.58 1024.98 1024.31 1023.58 1022.83 1022.07 1021.34 1020.62 1019.91 1019.19 1018.44
1025.08 1026.46 1027.56 1028.36 1028.90 1029.24 1029.49 1029.75 1030.11 1030.60 1031.22 1031.94 1032.68 1033.36 1033.91 1034.28 1034.45 1034.45 1034.33 1034.15 1033.96 1033.78 1033.63 1033.48 1033.29 1033.02 1032.63 1032.12 1031.51 1030.83 1030.14 1029.48 1028.90 1028.39 1027.94 1027.53 1027.10 1026.63 1026.07 1025.43 1024.71 1023.96 1023.18 1022.42 1021.68 1020.96 1020.25 1019.52 1018.75
1026.05 1027.21 1028.07 1028.66 1029.04 1029.30 1029.54 1029.85 1030.29 1030.88 1031.59 1032.35 1033.09 1033.73 1034.22 1034.52 1034.65 1034.64 1034.54 1034.41 1034.29 1034.20 1034.11 1034.01 1033.84 1033.56 1033.15 1032.62 1031.99 1031.32 1030.64 1030.02 1029.46 1028.97 1028.54 1028.11 1027.64 1027.11 1026.50 1025.79 1025.03 1024.24 1023.44 1022.67 1021.94 1021.22 1020.50 1019.77 1018.99
1026.86 1027.82 1028.49 1028.92 1029.19 1029.41 1029.66 1030.02 1030.53 1031.17 1031.91 1032.66 1033.36 1033.94 1034.36 1034.61 1034.71 1034.71 1034.67 1034.62 1034.58 1034.57 1034.54 1034.46 1034.29 1034.00 1033.57 1033.02 1032.39 1031.73 1031.09 1030.50 1029.98 1029.52 1029.08 1028.63 1028.13 1027.54 1026.86 1026.09 1025.28 1024.46 1023.65 1022.88 1022.15 1021.43 1020.71 1019.97 1019.17
1027.47 1028.27 1028.78 1029.11 1029.33 1029.54 1029.82 1030.23 1030.79 1031.46 1032.18 1032.89 1033.52 1034.03 1034.38 1034.59 1034.69 1034.73 1034.76 1034.79 1034.84 1034.89 1034.91 1034.85 1034.67 1034.35 1033.90 1033.33 1032.71 1032.08 1031.48 1030.93 1030.45 1030.01 1029.57 1029.10 1028.55 1027.90 1027.17 1026.36 1025.52 1024.69 1023.88 1023.11 1022.38 1021.66 1020.93 1020.16 1019.33
1027.85 1028.49 1028.91 1029.18 1029.40 1029.64 1029.99 1030.46 1031.05 1031.73 1032.42 1033.07 1033.63 1034.06 1034.36 1034.55 1034.67 1034.76 1034.86 1034.98 1035.10 1035.20 1035.24 1035.18 1034.98 1034.63 1034.16 1033.59 1032.99 1032.38 1031.82 1031.32 1030.87 1030.44 1030.00 1029.49 1028.90 1028.22 1027.45 1026.63 1025.79 1024.96 1024.16 1023.41 1022.68 1021.95 1021.19 1020.37 1019.47
1027.97 1028.50 1028.85 1029.12 1029.37 1029.69 1030.11 1030.66 1031.29 1031.97 1032.63 1033.23 1033.72 1034.10 1034.36 1034.55 1034.70 1034.85 1035.02 1035.20 1035.37 1035.50 1035.55 1035.46 1035.23 1034.86 1034.37 1033.81 1033.22 1032.66 1032.14 1031.67 1031.24 1030.81 1030.35 1029.82 1029.20 1028.49 1027.72 1026.90 1026.08 1025.28 1024.52 1023.78 1023.05 1022.30 1021.49 1020.60 1019.62
1027.86 1028.29 1028.62 1028.91 1029.23 1029.65 1030.17 1030.79 1031.48 1032.17 1032.82 1033.37 1033.82 1034.17 1034.43 1034.63 1034.82 1035.02 1035.24 1035.46 1035.66 1035.79 1035.81 1035.69 1035.43 1035.03 1034.54 1033.99 1033.44 1032.91 1032.42 1031.98 1031.55 1031.11 1030.63 1030.07 1029.43 1028.72 1027.95 1027.17 1026.39 1025.64 1024.92 1024.21 1023.47 1022.69 1021.82 1020.85 1019.78
1027.55 1027.91 1028.23 1028.58 1029.00 1029.53 1030.16 1030.86 1031.60 1032.31 1032.95 1033.50 1033.94 1034.28 1034.55 1034.79 1035.02 1035.26 1035.51 1035.74 1035.93 1036.03 1036.01 1035.86 1035.56 1035.15 1034.66 1034.14 1033.62 1033.13 1032.67 1032.24 1031.81 1031.35 1030.83 1030.24 1029.59 1028.88 1028.14 1027.40 1026.69 1025.99 1025.32 1024.63 1023.90 1023.08 1022.16 1021.11 1019.96
1027.13 1027.45 1027.78 1028.19 1028.71 1029.35 1030.07 1030.86 1031.64 1032.38 1033.04 1033.59 1034.03 1034.40 1034.71 1034.99 1035.26 1035.54 1035.80 1036.02 1036.18 1036.22 1036.15 1035.95 1035.63 1035.21 1034.75 1034.26 1033.79 1033.33 1032.90 1032.47 1032.02 1031.52 1030.96 1030.34 1029.67 1028.96 1028.26 1027.57 1026.92 1026.29 1025.66 1024.99 1024.26 1023.42 1022.45 1021.36 1020.15
1026.71 1026.99 1027.35 1027.83 1028.44 1029.16 1029.96 1030.80 1031.62 1032.38 1033.05 1033.62 1034.09 1034.50 1034.86 1035.19 1035.51 1035.81 1036.06 1036.26 1036.36 1036.35 1036.22 1035.98 1035.63 1035.23 1034.79 1034.36 1033.93 1033.51 1033.10 1032.66 1032.17 1031.63 1031.03 1030.36 1029.67 1028.97 1028.30 1027.66 1027.06 1026.48 1025.89 1025.25 1024.52 1023.67 1022.68 1021.57 1020.36
1026.38 1026.65 1027.04 1027.57 1028.24 1029.02 1029.86 1030.72 1031.55 1032.31 1032.99 1033.57 1034.09 1034.54 1034.96 1035.36 1035.72 1036.03 1036.28 1036.44 1036.49 1036.42 1036.23 1035.95 1035.60 1035.22 1034.82 1034.44 1034.06 1033.68 1033.27 1032.82 1032.30 1031.70 1031.04 1030.34 1029.62 1028.92 1028.26 1027.65 1027.09 1026.55 1025.99 1025.37 1024.65 1023.81 1022.84 1021.75 1020.59
1026.23 1026.50 1026.92 1027.49 1028.19 1028.99 1029.83 1030.67 1031.47 1032.20 1032.86 1033.46 1034.01 1034.52 1035.01 1035.46 1035.87 1036.21 1036.45 1036.57 1036.57 1036.45 1036.22 1035.91 1035.57 1035.21 1034.86 1034.52 1034.19 1033.83 1033.43 1032.96 1032.39 1031.75 1031.03 1030.28 1029.54 1028.83 1028.17 1027.59 1027.05 1026.53 1025.98 1025.38 1024.67 1023.85 1022.92 1021.90 1020.81
1026.30 1026.58 1027.02 1027.61 1028.31 1029.08 1029.88 1030.66 1031.39 1032.08 1032.71 1033.31 1033.89 1034.45 1035.00 1035.52 1035.97 1036.33 1036.57 1036.68 1036.64 1036.47 1036.22 1035.90 1035.56 1035.23 1034.92 1034.63 1034.33 1033.99 1033.58 1033.08 1032.47 1031.78 1031.02 1030.23 1029.46 1028.73 1028.08 1027.49 1026.96 1026.44 1025.90 1025.29 1024.60 1023.81 1022.94 1021.99 1021.02
1026.57 1026.87 1027.33 1027.91 1028.58 1029.30 1030.01 1030.70 1031.35 1031.97 1032.56 1033.15 1033.76 1034.37 1034.98 1035.56 1036.06 1036.45 1036.70 1036.79 1036.73 1036.54 1036.27 1035.94 1035.62 1035.31 1035.03 1034.76 1034.47 1034.14 1033.72 1033.19 1032.55 1031.81 1031.01 1030.19 1029.40 1028.66 1028.00 1027.40 1026.86 1026.33 1025.77 1025.16 1024.47 1023.71 1022.89 1022.03 1021.17
1027.00 1027.31 1027.77 1028.33 1028.96 1029.60 1030.22 1030.81 1031.36 1031.90 1032.45 1033.04 1033.66 1034.32 1034.98 1035.62 1036.17 1036.59 1036.86 1036.95 1036.88 1036.68 1036.39 1036.06 1035.74 1035.44 1035.17 1034.90 1034.62 1034.27 1033.82 1033.26 1032.59 1031.82 1031.00 1030.17 1029.37 1028.62 1027.95 1027.34 1026.77 1026.21 1025.62 1024.99 1024.30 1023.56 1022.78 1021.99 1021.22
1027.49 1027.82 1028.27 1028.79 1029.36 1029.92 1030.45 1030.94 1031.41 1031.90 1032.41 1032.99 1033.64 1034.34 1035.06 1035.75 1036.34 1036.79 1037.07 1037.16 1037.09 1036.88 1036.59 1036.26 1035.93 1035.62 1035.34 1035.05 1034.74 1034.36 1033.88 1033.29 1032.59 1031.81 1030.98 1030.15 1029.35 1028.61 1027.93 1027.30 1026.69 1026.09 1025.46 1024.79 1024.08 1023.34 1022.58 1021.84 1021.14
1027.94 1028.27 1028.71 1029.20 1029.70 1030.19 1030.64 1031.07 1031.49 1031.94 1032.45 1033.05 1033.73 1034.47 1035.23 1035.95 1036.58 1037.05 1037.34 1037.43 1037.36 1037.14 1036.84 1036.50 1036.15 1035.82 1035.50 1035.18 1034.82 1034.39 1033.87 1033.25 1032.53 1031.74 1030.93 1030.11 1029.32 1028.59 1027.90 1027.25 1026.60 1025.95 1025.27 1024.55 1023.80 1023.03 1022.28 1021.56 1020.89
1028.30 1028.62 1029.02 1029.46 1029.92 1030.35 1030.76 1031.16 1031.57 1032.03 1032.56 1033.19 1033.91 1034.70 1035.49 1036.24 1036.88 1037.35 1037.64 1037.73 1037.64 1037.42 1037.11 1036.75 1036.37 1036.01 1035.64 1035.26 1034.84 1034.35 1033.79 1033.13 1032.40 1031.62 1030.81 1030.02 1029.26 1028.53 1027.83 1027.15 1026.46 1025.75 1025.00 1024.22 1023.42 1022.62 1021.85 1021.14 1020.48
1028.51 1028.79 1029.15 1029.55 1029.96 1030.37 1030.77 1031.18 1031.62 1032.13 1032.73 1033.42 1034.19 1035.01 1035.83 1036.58 1037.21 1037.67 1037.94 1038.01 1037.91 1037.68 1037.35 1036.97 1036.57 1036.16 1035.74 1035.29 1034.80 1034.25 1033.63 1032.94 1032.20 1031.43 1030.64 1029.88 1029.13 1028.42 1027.71 1026.99 1026.25 1025.46 1024.64 1023.78 1022.92 1022.08 1021.29 1020.57 1019.91
1028.60 1028.82 1029.11 1029.46 1029.84 1030.24 1030.66 1031.13 1031.64 1032.24 1032.92 1033.69 1034.52 1035.37 1036.19 1036.93 1037.53 1037.95 1038.19 1038.24 1038.12 1037.88 1037.54 1037.14 1036.71 1036.26 1035.79 1035.27 1034.72 1034.10 1033.44 1032.72 1031.96 1031.20 1030.44 1029.70 1028.97 1028.25 1027.52 1026.76 1025.95 1025.09 1024.18 1023.25 1022.32 1021.44 1020.62 1019.89 1019.25
Thickness
5753 5756 5755 5741 5714 5682 5656 5655 5665 5661 5651 5647 5649 5644 5635 5629 5624 5612 5619 5625 5627 5629 5632 5636 5640 5643 5646 5648 5649 5651 5653 5654 5656 5658 5660 5662 5665 5668 5670 5673 5676 5680 5684 5688 5691 5694 5697 5700 5703
5754 5755 5743 5720 5685 5654 5645 5648 5657 5661 5654 5649 5644 5638 5633 5627 5626 5622 5618 5620 5622 5623 5625 5629 5632 5635 5638 5640 5642 5643 5645 5646 5647 5648 5650 5651 5654 5656 5658 5660 5663 5667 5672 5676 5680 5685 5689 5692 5696
5754 5749 5720 5689 5655 5642 5645 5649 5652 5654 5655 5650 5639 5633 5628 5623 5621 5616 5613 5616 5617 5617 5618 5621 5624 5627 5629 5631 5633 5635 5636 5637 5638 5639 5639 5641 5643 5644 5646 5648 5651 5655 5659 5663 5668 5673 5678 5683 5687
5749 5730 5703 5670 5643 5639 5641 5644 5654 5659 5653 5646 5638 5626 5620 5619 5616 5611 5612 5613 5612 5611 5611 5613 5616 5618 5620 5622 5623 5625 5626 5626 5627 5628 5629 5630 5631 5632 5634 5636 5639 5642 5646 5650 5655 5661 5666 5672 5677
5742 5713 5679 5649 5641 5639 5639 5646 5651 5649 5644 5637 5635 5621 5614 5611 5611 5610 5609 5608 5606 5604 5604 5605 5607 5608 5610 5612 5612 5613 5614 5615 5615 5615 5616 5617 5617 5619 5621 5623 5625 5629 5633 5637 5642 5648 5653 5659 5665
5723 5699 5663 5643 5641 5642 5642 5642 5644 5639 5636 5635 5629 5620 5608 5606 5607 5605 5603 5601 5598 5597 5596 5597 5597 5598 5599 5600 5600 5600 5601 5601 5601 5601 5602 5602 5602 5603 5606 5607 5611 5615 5619 5623 5628 5633 5639 5645 5651
5713 5685 5658 5648 5644 5644 5644 5644 5637 5633 5632 5630 5630 5617 5606 5601 5600 5599 5597 5594 5591 5589 5588 5587 5586 5586 5586 5586 5586 5585 5585 5585 5585 5584 5585 5584 5584 5585 5587 5589 5593 5598 5602 5607 5612 5618 5624 5630 5636
5718 5689 5664 5656 5649 5643 5644 5643 5637 5633 5630 5630 5625 5612 5601 5597 5596 5594 5591 5587 5584 5581 5579 5576 5574 5573 5572 5571 5569 5568 5567 5566 5565 5565 5565 5565 5565 5565 5567 5569 5573 5578 5583 5589 5594 5600 5607 5614 5621
5716 5679 5658 5661 5654 5646 5645 5640 5634 5628 5625 5620 5614 5606 5598 5594 5593 5589 5583 5578 5574 5570 5567 5564 5561 5559 5557 5556 5553 5551 5549 5547 5546 5545 5544 5544 5544 5544 5545 5546 5550 5555 5561 5567 5573 5580 5587 5595 5603
5698 5665 5661 5665 5661 5651 5646 5639 5631 5622 5617 5609 5603 5598 5594 5590 5586 5579 5572 5566 5562 5557 5555 5551 5548 5545 5542 5540 5537 5534 5531 5528 5526 5524 5523 5522 5520 5520 5521 5522 5525 5529 5536 5541 5549 5556 5565 5573 5583
5685 5667 5664 5661 5660 5653 5643 5635 5631 5619 5609 5604 5597 5590 5587 5582 5575 5568 5561 5554 5549 5545 5542 5538 5533 5528 5525 5521 5518 5514 5510 5506 5503 5501 5499 5497 5496 5495 5495 5497 5499 5503 5509 5514 5522 5530 5539 5548 5558
5675 5667 5666 5660 5658 5650 5640 5632 5622 5617 5609 5602 5596 5589 5581 5573 5566 5559 5552 5545 5539 5534 5529 5524 5517 5511 5506 5501 5496 5492 5486 5482 5478 5475 5472 5470 5468 5466 5466 5467 5469 5474 5479 5485 5492 5501 5512 5522 5533
5669 5661 5657 5653 5649 5642 5635 5624 5617 5607 5602 5597 5592 5584 5574 5565 5557 5550 5544 5536 5529 5522 5515 5509 5502 5495 5488 5482 5475 5469 5462 5456 5451 5447 5442 5439 5436 5435 5435 5436 5438 5442 5447 5453 5462 5472 5484 5495 5508
5667 5657 5650 5647 5643 5636 5626 5617 5612 5601 5598 5592 5585 5575 5566 5559 5551 5543 5535 5526 5517 5509 5502 5496 5488 5477 5469 5461 5452 5444 5436 5429 5422 5416 5410 5406 5403 5402 5402 5404 5406 5409 5414 5421 5430 5441 5454 5466 5479
5663 5652 5647 5644 5640 5631 5624 5613 5608 5601 5594 5586 5577 5568 5561 5552 5543 5534 5524 5514 5504 5496 5488 5479 5470 5458 5448 5438 5427 5417 5408 5400 5393 5387 5381 5376 5373 5372 5373 5375 5378 5380 5385 5392 5400 5412 5424 5437 5451
5660 5648 5641 5640 5637 5630 5622 5607 5605 5596 5588 5577 5567 5558 5551 5543 5533 5523 5513 5502 5492 5482 5472 5461 5450 5439 5427 5415 5403 5392 5383 5374 5367 5360 5355 5351 5348 5346 5347 5349 5352 5355 5359 5365 5374 5385 5396 5409 5423
5659 5648 5645 5639 5637 5631 5619 5605 5601 5591 5583 5569 5558 5549 5541 5532 5522 5511 5500 5489 5478 5467 5455 5443 5432 5420 5408 5395 5382 5370 5360 5351 5343 5337 5332 5328 5325 5324 5324 5326 5328 5331 5336 5342 5350 5360 5371 5384 5398
5662 5656 5646 5637 5636 5627 5613 5600 5595 5585 5577 5561 5550 5541 5534 5524 5512 5498 5487 5475 5463 5451 5439 5426 5414 5402 5390 5378 5365 5353 5342 5333 5325 5318 5312 5308 5306 5304 5304 5305 5306 5309 5314 5320 5327 5337 5348 5360 5373
5669 5660 5644 5638 5638 5626 5609 5596 5589 5578 5567 5553 5543 5535 5525 5514 5500 5485 5473 5461 5449 5436 5422 5409 5397 5385 5373 5361 5350 5340 5330 5320 5311 5303 5296 5291 5288 5286 5286 5285 5287 5289 5293 5298 5305 5315 5327 5339 5351
5668 5653 5639 5635 5634 5619 5602 5592 5584 5575 5565 5553 5540 5528 5517 5503 5487 5474 5461 5447 5433 5418 5405 5393 5380 5367 5354 5342 5330 5321 5311 5303 5295 5287 5280 5275 5271 5269 5268 5267 5268 5270 5274 5279 5285 5294 5306 5317 5328
5655 5650 5641 5632 5625 5614 5598 5588 5576 5569 5561 5548 5534 5521 5508 5495 5477 5463 5449 5433 5418 5404 5391 5378 5364 5350 5338 5327 5317 5309 5301 5292 5284 5278 5269 5262 5258 5255 5253 5252 5252 5254 5257 5261 5267 5275 5284 5296 5308
5650 5649 5644 5631 5615 5604 5600 5584 5569 5559 5551 5539 5522 5507 5495 5481 5467 5453 5438 5423 5407 5392 5377 5363 5349 5336 5324 5313 5303 5294 5287 5278 5270 5263 5257 5251 5246 5243 5241 5240 5239 5240 5242 5246 5251 5257 5264 5275 5287
5647 5647 5640 5630 5618 5605 5595 5583 5568 5550 5541 5529 5514 5499 5485 5470 5456 5443 5428 5412 5396 5380 5364 5349 5335 5322 5311 5300 5290 5281 5271 5263 5256 5251 5246 5241 5237 5233 5231 5230 5229 5229 5230 5233 5237 5243 5249 5257 5268
5647 5636 5630 5616 5606 5598 5597 5575 5570 5540 5537 5523 5507 5491 5475 5461 5447 5433 5417 5401 5384 5367 5351 5337 5323 5311 5300 5289 5279 5269 5260 5253 5247 5242 5237 5233 5229 5226 5223 5221 5220 5220 5221 5223 5226 5230 5235 5242 5252
5635 5620 5607 5606 5595 5595 5594 5576 5561 5542 5532 5519 5500 5481 5466 5452 5438 5422 5406 5389 5372 5356 5340 5326 5313 5302 5290 5279 5269 5260 5250 5242 5236 5231 5227 5223 5221 5218 5216 5214 5212 5212 5212 5213 5216 5219 5224 5230 5238
5629 5620 5600 5592 5583 5585 5587 5574 5542 5538 5526 5512 5494 5475 5460 5444 5427 5411 5394 5377 5360 5345 5330 5316 5304 5292 5281 5271 5261 5251 5242 5234 5227 5221 5216 5213 5210 5208 5207 5205 5203 5203 5203 5204 5206 5210 5213 5220 5226
5625 5610 5607 5586 5579 5572 5574 5558 5539 5530 5516 5500 5483 5467 5450 5434 5417 5400 5382 5365 5349 5334 5320 5307 5295 5283 5273 5263 5253 5245 5235 5227 5220 5213 5208 5204 5200 5198 5196 5194 5193 5192 5192 5194 5196 5199 5204 5209 5216
5623 5609 5590 5585 5575 5566 5569 5562 5541 5521 5510 5496 5477 5458 5441 5425 5407 5389 5371 5355 5339 5324 5310 5298 5286 5275 5265 5255 5245 5237 5228 5220 5213 5206 5201 5196 5191 5187 5184 5182 5180 5179 5179 5181 5184 5188 5193 5199 5206
5616 5610 5596 5578 5567 5558 5553 5562 5548 5526 5510 5491 5470 5450 5432 5416 5397 5378 5360 5344 5329 5315 5303 5291 5280 5269 5260 5250 5240 5231 5222 5214 5207 5199 5193 5187 5181 5176 5171 5167 5164 5162 5163 5165 5169 5174 5181 5188 5196
5611 5605 5592 5579 5571 5552 5536 5548 5538 5518 5504 5483 5460 5442 5425 5407 5387 5368 5351 5336 5321 5309 5297 5285 5275 5264 5254 5245 5235 5226 5217 5209 5201 5194 5187 5179 5172 5164 5157 5150 5145 5143 5143 5146 5151 5158 5167 5176 5185